[[{"header":{"parameterUnit":"m.s-1","parameterCategory":1,"la1":30.2992,"la2":30.254,"lo1":-89.0895,"lo2":-89.0443,"dy":0.0025,"dx":0.0025,"nx":19,"ny":19,"refTime":"2026-04-30T03:00:00:Z","depth":0,"parameterNumber":2,"parameterNumberName":"U-component_of_WINDS"},"data":[0,0,0,-2.8364,-2.8362,-2.8284,-2.8284,-2.8178,-2.8177,0,0,0,0,0,0,0,0,0,0,0,-2.8384,-2.8383,-2.8364,-2.8362,-2.8284,-2.8284,-2.8178,-2.8177,0,0,0,0,0,0,0,0,0,0,0,-2.8384,-2.8383,-2.8382,-2.8362,-2.8284,-2.8284,-2.8178,-2.8239,0,0,0,0,0,0,0,0,0,0,-2.8315,-2.8332,-2.8384,-2.8382,-2.8361,-2.8285,-2.8284,-2.8242,-2.8235,-2.821,0,-2.8189,0,-2.8181,-2.8169,-2.8169,0,0,0,-2.8364,-2.8337,-2.8319,-2.8382,-2.836,-2.8285,-2.832,-2.8238,-2.823,-2.8201,-2.8187,-2.8183,-2.8179,-2.8168,-2.8168,-2.8019,-2.8018,0,0,-2.8368,-2.8368,-2.8324,-2.8314,-2.8327,-2.8322,-2.8317,-2.8234,-2.8218,-2.8187,-2.8181,-2.8177,-2.8168,-2.8167,-2.8019,-2.8018,0,0,0,-2.8379,-2.8371,-2.8355,-2.8318,-2.8305,-2.832,-2.8314,-2.8222,-2.8216,-2.818,-2.8176,-2.8167,-2.8166,-2.802,-2.8019,-2.7976,0,0,0,-2.8382,-2.8378,-2.8357,-2.8356,-2.8306,-2.8263,-2.8304,-2.8222,-2.8213,-2.8177,-2.8167,-2.8165,-2.8021,-2.802,-2.798,-2.7955,0,0,0,-2.839,-2.8379,-2.8367,-2.8356,-2.8323,-2.8264,-2.8254,-2.822,-2.821,-2.8169,-2.8164,-2.8022,-2.802,-2.7982,-2.7959,-2.7911,0,0,0,-2.8399,-2.8333,-2.8366,-2.8291,-2.8324,-2.824,-2.8255,-2.8193,-2.8152,-2.8166,-2.8021,-2.8019,-2.7983,-2.7962,-2.7914,-2.7866,-2.7848,0,0,-2.8315,-2.8323,-2.8278,-2.8306,-2.8216,-2.8252,-2.8155,-2.8119,-2.8116,-2.8051,-2.8047,-2.7979,-2.796,-2.7911,-2.7756,-2.7741,0,0,0,-2.8252,-2.8219,-2.8195,-2.8156,-2.8127,-2.8098,-2.8077,-2.8063,-2.8007,-2.8083,-2.7951,-2.794,-2.7912,-2.7888,-2.7876,-2.7849,-2.801,-2.8011,-2.8011,-2.813,-2.8129,-2.8054,-2.8042,-2.8005,-2.7982,-2.795,-2.7927,-2.7939,-2.7908,-2.7886,-2.7792,-2.7765,-2.7756,-2.7728,-2.7866,-2.7866,-2.7866,-2.7866,-2.8003,-2.7953,-2.7969,-2.7901,-2.7899,-2.7842,-2.7817,-2.7827,-2.7771,-2.7809,-2.7784,-2.782,-2.774,-2.7715,-2.7863,-2.7863,-2.7864,-2.7864,-2.7864,-2.7917,-2.7893,-2.7878,-2.782,-2.7775,-2.7767,-2.7711,-2.7714,-2.7716,-2.7692,-2.7665,-2.7666,-2.7661,-2.7681,-2.768,-2.768,-2.768,-2.7679,-2.7679,-2.7832,-2.7817,-2.777,-2.7732,-2.7706,-2.7671,-2.7648,-2.7622,-2.7593,-2.7598,-2.7598,-2.7608,-2.7735,-2.7763,-2.7674,-2.7675,-2.7675,-2.7676,-2.7676,-2.7692,-2.7724,-2.7651,-2.7624,-2.7578,-2.753,-2.7536,-2.7482,-2.7461,-2.7432,-2.7449,-2.7545,-2.7552,-2.7562,-2.7584,-2.7454,-2.7454,-2.7454,-2.7454,-2.7615,-2.762,-2.7544,-2.75,-2.7459,-2.7455,-2.7369,-2.735,-2.7335,-2.7321,-2.7342,-2.7375,-2.7385,-2.7385,-2.7399,-2.7419,-2.725,-2.725,-2.725,-2.7525,-2.7526,-2.7452,-2.7439,-2.7403,-2.7371,-2.7288,-2.7235,-2.7226,-2.7241,-2.7308,-2.7317,-2.737,-2.7388,-2.7399,-2.742,-2.7458,0,0]},{"header":{"parameterUnit":"m.s-1","parameterCategory":1,"la1":30.2992,"la2":30.254,"lo1":-89.0895,"lo2":-89.0443,"dy":0.0025,"dx":0.0025,"nx":19,"ny":19,"refTime":"2026-04-30T03:00:00:Z","depth":0,"parameterNumber":3,"parameterNumberName":"V-component_of_WINDS"},"data":[0,0,0,0.7112,0.7115,0.7214,0.7214,0.7396,0.7398,0,0,0,0,0,0,0,0,0,0,0,0.7113,0.7115,0.7112,0.7115,0.7214,0.7214,0.7396,0.7398,0,0,0,0,0,0,0,0,0,0,0,0.7112,0.7115,0.7117,0.7116,0.7214,0.7214,0.7395,0.7302,0,0,0,0,0,0,0,0,0,0,0.7196,0.7226,0.7114,0.7118,0.7116,0.7214,0.7214,0.7296,0.7308,0.7375,0,0.7439,0,0.7422,0.7414,0.7415,0,0,0,0.7093,0.7217,0.7216,0.7118,0.7118,0.7214,0.7163,0.7302,0.7315,0.739,0.7441,0.7447,0.7425,0.7415,0.7417,0.7875,0.7878,0,0,0.7087,0.7148,0.7207,0.7226,0.721,0.716,0.7166,0.7309,0.737,0.7442,0.745,0.7428,0.7417,0.7419,0.7872,0.7876,0,0,0,0.7087,0.7145,0.7139,0.722,0.7233,0.7163,0.7171,0.7363,0.7356,0.7451,0.743,0.7418,0.7421,0.7868,0.7873,0.8094,0,0,0,0.7082,0.7144,0.7138,0.7176,0.7232,0.7299,0.7223,0.7347,0.7361,0.7429,0.7418,0.7423,0.7865,0.7871,0.808,0.819,0,0,0,0.7096,0.7145,0.717,0.7179,0.7223,0.7295,0.7295,0.7348,0.7349,0.7415,0.7424,0.7862,0.787,0.8068,0.8169,0.8334,0,0,0,0.7129,0.736,0.7174,0.7425,0.7223,0.7428,0.7294,0.7443,0.7526,0.742,0.7865,0.7873,0.8064,0.8156,0.8321,0.8488,0.8561,0,0,0.7455,0.7402,0.7545,0.7381,0.7636,0.7408,0.7696,0.7713,0.7664,0.7809,0.7819,0.8085,0.8168,0.8331,0.8939,0.8998,0,0,0,0.7669,0.7774,0.7828,0.7909,0.7928,0.7957,0.7923,0.7931,0.8051,0.775,0.8183,0.823,0.8324,0.8402,0.8452,0.8532,0.7909,0.7908,0.7908,0.822,0.8146,0.838,0.8321,0.8401,0.8368,0.8429,0.8434,0.8332,0.8437,0.8481,0.8859,0.8952,0.8989,0.9073,0.8557,0.8558,0.8559,0.8559,0.8697,0.8837,0.87,0.888,0.8802,0.8953,0.8932,0.8856,0.8989,0.8817,0.8896,0.8722,0.9055,0.9126,0.8575,0.8572,0.857,0.8569,0.8568,0.9055,0.911,0.9115,0.923,0.9328,0.9258,0.9394,0.9315,0.9243,0.9321,0.9365,0.9361,0.9354,0.9346,0.9347,0.9348,0.935,0.9351,0.9351,0.9428,0.9426,0.9549,0.9593,0.9639,0.969,0.9662,0.9706,0.9736,0.9669,0.9669,0.9565,0.9098,0.8988,0.9372,0.9368,0.9365,0.9364,0.9362,0.995,0.9821,1.0011,1.0058,1.0108,1.0215,1.0113,1.0212,1.0236,1.0308,1.0186,0.9851,0.9792,0.9752,0.966,1.0195,1.0195,1.0195,1.0195,1.0259,1.022,1.0401,1.0483,1.0552,1.0482,1.0708,1.0691,1.0653,1.0666,1.0576,1.0445,1.0407,1.0371,1.0317,1.0231,1.0899,1.09,1.09,1.058,1.0546,1.0751,1.0711,1.0746,1.0779,1.0992,1.1095,1.1024,1.0928,1.0677,1.0647,1.0435,1.0368,1.0271,1.0189,1.0029,0,0]}]]